Hourly Weather Allstedt

Today, 25 February, Thursday

Time Temperature Precipitation Wind Pressure Humidity
00:00 +10°C° 0 mm 2 mps 757 mmHg 87%
01:00 +10°C° 0 mm 2 mps 757 mmHg 87%
02:00 +10°C° 0 mm 2 mps 757 mmHg 86%
03:00 +9°C° 0 mm 2 mps 757 mmHg 86%
04:00 +9°C° 0 mm 2 mps 756 mmHg 85%
05:00 +9°C° 0 mm 2 mps 756 mmHg 85%
06:00 +9°C° 0 mm 2 mps 756 mmHg 85%
07:00 +8°C° 0 mm 2 mps 756 mmHg 84%
08:00 +10°C° 0 mm 3 mps 756 mmHg 80%
09:00 +11°C° 0 mm 3 mps 756 mmHg 75%
10:00 +12°C° 0 mm 4 mps 756 mmHg 70%
11:00 +14°C° 0 mm 4 mps 756 mmHg 67%
12:00 +15°C° 0 mm 4 mps 756 mmHg 64%
13:00 +17°C° 0 mm 4 mps 756 mmHg 61%
14:00 +17°C° 0 mm 4 mps 756 mmHg 63%
15:00 +17°C° 0 mm 4 mps 756 mmHg 65%
16:00 +17°C° 0 mm 3 mps 756 mmHg 67%
17:00 +14°C° 0 mm 3 mps 756 mmHg 72%
18:00 +13°C° 0 mm 3 mps 756 mmHg 78%
19:00 +12°C° 0 mm 2 mps 756 mmHg 83%
20:00 +12°C° 0 mm 2 mps 757 mmHg 84%
21:00 +11°C° 0 mm 1 mps 757 mmHg 84%
22:00 +11°C° 0 mm 1 mps 757 mmHg 85%
23:00 +10°C° 0 mm 1 mps 757 mmHg 85%

Tomorrow, 26 February, Friday

Time Temperature Precipitation Wind Pressure Humidity
00:00 +10°C° 0 mm 1 mps 757 mmHg 85%
01:00 +10°C° 0 mm 1 mps 757 mmHg 86%
02:00 +10°C° 0 mm 1 mps 757 mmHg 87%
03:00 +10°C° 0 mm 1 mps 757 mmHg 89%
04:00 +9°C° 0 mm 2 mps 757 mmHg 91%
05:00 +9°C° 0.1 mm 1 mps 757 mmHg 92%
06:00 +9°C° 0.1 mm 1 mps 757 mmHg 93%
07:00 +9°C° 0.1 mm 1 mps 757 mmHg 94%
08:00 +9°C° 0.5 mm 1 mps 757 mmHg 95%
09:00 +9°C° 0.5 mm 1 mps 758 mmHg 95%
10:00 +8°C° 0.5 mm 2 mps 758 mmHg 96%
11:00 +7°C° 0.6 mm 2 mps 758 mmHg 93%
12:00 +7°C° 0.6 mm 2 mps 758 mmHg 91%
13:00 +7°C° 0.6 mm 2 mps 758 mmHg 88%
14:00 +7°C° 0.1 mm 2 mps 758 mmHg 84%
15:00 +8°C° 0.1 mm 2 mps 758 mmHg 80%
16:00 +8°C° 0.1 mm 2 mps 758 mmHg 76%
17:00 +7°C° 0 mm 2 mps 758 mmHg 79%
18:00 +6°C° 0 mm 2 mps 758 mmHg 81%
19:00 +5°C° 0 mm 2 mps 759 mmHg 83%
20:00 +5°C° 0 mm 2 mps 759 mmHg 84%
21:00 +4°C° 0 mm 2 mps 759 mmHg 86%
22:00 +4°C° 0 mm 2 mps 759 mmHg 87%
23:00 +3°C° 0 mm 2 mps 760 mmHg 87%

Day after tomorrow, 27 February, Saturday

Time Temperature Precipitation Wind Pressure Humidity
00:00 +3°C° 0 mm 2 mps 760 mmHg 88%
01:00 +2°C° 0 mm 2 mps 760 mmHg 88%
02:00 +2°C° 0 mm 2 mps 760 mmHg 89%
03:00 +1°C° 0 mm 2 mps 760 mmHg 90%
04:00 +1°C° 0 mm 2 mps 760 mmHg 91%
05:00 +1°C° 0 mm 2 mps 760 mmHg 92%
06:00 +1°C° 0 mm 2 mps 761 mmHg 92%
07:00 +1°C° 0 mm 2 mps 761 mmHg 92%
08:00 +1°C° 0 mm 3 mps 761 mmHg 88%
09:00 +3°C° 0 mm 3 mps 761 mmHg 83%
10:00 +4°C° 0 mm 3 mps 761 mmHg 78%
11:00 +5°C° 0 mm 3 mps 762 mmHg 76%
12:00 +7°C° 0 mm 3 mps 762 mmHg 73%
13:00 +7°C° 0 mm 4 mps 762 mmHg 70%
14:00 +7°C° 0 mm 4 mps 762 mmHg 72%
15:00 +6°C° 0 mm 4 mps 761 mmHg 73%
16:00 +6°C° 0 mm 4 mps 761 mmHg 74%
17:00 +5°C° 0 mm 3 mps 761 mmHg 77%
18:00 +5°C° 0 mm 3 mps 762 mmHg 80%
19:00 +5°C° 0 mm 2 mps 762 mmHg 83%
20:00 +5°C° 0 mm 2 mps 762 mmHg 85%
21:00 +4°C° 0 mm 2 mps 762 mmHg 87%
22:00 +5°C° 0 mm 1 mps 762 mmHg 88%
23:00 +4°C° 0 mm 1 mps 762 mmHg 89%

28 February, Sunday

Time Temperature Precipitation Wind Pressure Humidity
00:00 +4°C° 0 mm 1 mps 763 mmHg 90%
01:00 +3°C° 0 mm 2 mps 763 mmHg 91%
02:00 +3°C° 0 mm 1 mps 762 mmHg 91%
03:00 +3°C° 0 mm 1 mps 762 mmHg 91%
04:00 +3°C° 0 mm 1 mps 762 mmHg 91%
05:00 +2°C° 0 mm 1 mps 762 mmHg 91%
06:00 +1°C° 0 mm 0 mps 762 mmHg 91%
07:00 +1°C° 0 mm 0 mps 762 mmHg 91%
08:00 +2°C° 0 mm 0 mps 762 mmHg 87%
09:00 +3°C° 0 mm 0 mps 762 mmHg 82%
10:00 +4°C° 0 mm 0 mps 762 mmHg 77%
11:00 +6°C° 0 mm 1 mps 762 mmHg 73%
12:00 +7°C° 0 mm 1 mps 762 mmHg 68%
13:00 +8°C° 0 mm 1 mps 761 mmHg 63%
14:00 +8°C° 0 mm 1 mps 761 mmHg 63%
15:00 +9°C° 0 mm 1 mps 761 mmHg 63%
16:00 +8°C° 0 mm 2 mps 760 mmHg 63%
17:00 +7°C° 0 mm 2 mps 761 mmHg 69%
18:00 +6°C° 0 mm 1 mps 761 mmHg 76%
19:00 +5°C° 0 mm 1 mps 761 mmHg 82%
20:00 +5°C° 0 mm 1 mps 761 mmHg 83%
21:00 +4°C° 0 mm 1 mps 761 mmHg 85%
22:00 +3°C° 0 mm 0 mps 762 mmHg 86%
23:00 +3°C° 0 mm 0 mps 762 mmHg 86%

1 March, Monday

Time Temperature Precipitation Wind Pressure Humidity
00:00 +2°C° 0 mm 0 mps 762 mmHg 87%
01:00 +2°C° 0 mm 0 mps 762 mmHg 88%
02:00 +2°C° 0 mm 0 mps 762 mmHg 88%
03:00 +3°C° 0 mm 1 mps 762 mmHg 88%
04:00 +2°C° 0 mm 1 mps 761 mmHg 89%
05:00 +2°C° 0 mm 1 mps 761 mmHg 89%
06:00 +2°C° 0 mm 1 mps 762 mmHg 90%
07:00 +2°C° 0 mm 1 mps 762 mmHg 90%
08:00 +3°C° 0 mm 1 mps 762 mmHg 84%
09:00 +5°C° 0 mm 1 mps 762 mmHg 78%
10:00 +5°C° 0 mm 2 mps 762 mmHg 72%
11:00 +6°C° 0 mm 2 mps 762 mmHg 67%
12:00 +8°C° 0 mm 2 mps 762 mmHg 62%
13:00 +9°C° 0 mm 3 mps 762 mmHg 57%
14:00 +9°C° 0 mm 3 mps 762 mmHg 57%
15:00 +9°C° 0 mm 3 mps 762 mmHg 57%
16:00 +9°C° 0 mm 3 mps 761 mmHg 57%
17:00 +8°C° 0 mm 2 mps 761 mmHg 63%
18:00 +6°C° 0 mm 2 mps 761 mmHg 69%
19:00 +5°C° 0 mm 2 mps 761 mmHg 75%
20:00 +4°C° 0 mm 2 mps 762 mmHg 76%
21:00 +4°C° 0 mm 2 mps 762 mmHg 77%
22:00 +3°C° 0 mm 2 mps 762 mmHg 78%
23:00 +4°C° 0 mm 1 mps 762 mmHg 79%

2 March, Tuesday

Time Temperature Precipitation Wind Pressure Humidity
00:00 +3°C° 0 mm 1 mps 762 mmHg 79%
01:00 +3°C° 0 mm 1 mps 762 mmHg 80%
02:00 +3°C° 0 mm 1 mps 762 mmHg 80%
03:00 +3°C° 0 mm 1 mps 761 mmHg 80%
04:00 +2°C° 0 mm 1 mps 761 mmHg 80%
05:00 +2°C° 0 mm 1 mps 761 mmHg 79%
06:00 +2°C° 0 mm 1 mps 761 mmHg 78%
07:00 +2°C° 0 mm 1 mps 761 mmHg 77%
08:00 +3°C° 0 mm 1 mps 761 mmHg 71%
09:00 +5°C° 0 mm 1 mps 761 mmHg 64%
10:00 +6°C° 0 mm 2 mps 761 mmHg 58%
11:00 +7°C° 0 mm 2 mps 761 mmHg 54%
12:00 +9°C° 0 mm 2 mps 761 mmHg 51%
13:00 +10°C° 0 mm 2 mps 760 mmHg 48%
14:00 +10°C° 0 mm 2 mps 760 mmHg 49%
15:00 +12°C° 0 mm 2 mps 760 mmHg 50%
16:00 +12°C° 0 mm 2 mps 759 mmHg 51%
17:00 +9°C° 0 mm 2 mps 759 mmHg 55%
18:00 +8°C° 0 mm 1 mps 759 mmHg 60%
19:00 +7°C° 0 mm 1 mps 759 mmHg 65%
20:00 +6°C° 0 mm 1 mps 759 mmHg 67%
21:00 +6°C° 0 mm 1 mps 759 mmHg 69%
22:00 +5°C° 0 mm 1 mps 759 mmHg 72%
23:00 +5°C° 0 mm 1 mps 759 mmHg 73%
Show more